Date String (YYYY-MM-DD hh:mm:ss) UTC,Instrument flags,Ambient pressure (hPa),Sample flow (lpm),Bypass flow (lpm),Sample temperature (°C),Ambient temperature (°C),ASC tube jacket temperature (°C),LED temperature (°C),Box temperature (°C),Sample RH (%),Span deviation,Mass concentration (μg/m³),Mass concentration (μg/m³),Mass concentration (μg/m³)
DateTimeUTC,F1_M11,P_M11,Q1_M11,Q2_M11,T1_M11,T2_M11,T3_M11,T4_M11,T5_M11,U1_M11,ZSPAN_M11,X0_M11,X2_M11,X1_M11
2022-01-15 20:00:00,,0830.0,4.98,0.00,22.9,22.4,00.0,31.9,24.7,10.1,0000.0,0007.42,0003.59,0003.29
2022-01-15 20:01:00,,0829.9,5.01,0.00,22.9,22.4,00.0,31.9,24.7,10.1,0000.0,0007.95,0003.66,0003.32
2022-01-15 20:02:00,,0829.9,5.00,0.00,22.9,22.4,00.0,31.9,24.7,10.1,0000.0,0008.40,0003.71,0003.33
2022-01-15 20:03:00,,0829.9,5.01,0.00,22.9,22.4,00.0,31.9,24.7,10.0,0000.0,0008.26,0003.72,0003.35
2022-01-15 20:04:00,,0829.9,4.99,0.00,22.9,22.4,00.0,31.9,24.7,10.1,0000.0,0008.20,0003.72,0003.37
2022-01-15 20:05:00,,0829.8,5.00,0.00,23.0,22.4,00.0,32.0,24.8,10.0,0000.0,0008.58,0003.73,0003.38
2022-01-15 20:06:00,,0829.8,5.01,0.00,23.0,22.4,00.0,32.0,24.8,10.2,0000.0,0008.60,0003.75,0003.40
2022-01-15 20:07:00,,0829.8,5.00,0.00,23.0,22.4,00.0,32.0,24.8,10.3,0000.0,0008.55,0003.76,0003.42
2022-01-15 20:08:00,,0829.7,5.00,0.00,23.0,22.4,00.0,32.0,24.8,10.3,0000.0,0008.75,0003.78,0003.43
2022-01-15 20:09:00,,0829.7,4.98,0.00,23.0,22.4,00.0,32.0,24.8,10.3,0000.0,0008.85,0003.76,0003.44
2022-01-15 20:10:00,,0829.7,5.01,0.00,23.0,22.4,00.0,32.0,24.8,10.3,0000.0,0008.93,0003.80,0003.45
2022-01-15 20:11:00,,0829.6,4.99,0.00,23.0,22.5,00.0,32.0,24.8,10.5,0000.0,0008.72,0003.83,0003.48
2022-01-15 20:12:00,,0829.6,5.01,0.00,23.0,22.5,00.0,32.0,24.8,10.3,0000.0,0008.40,0003.82,0003.49
2022-01-15 20:13:00,,0829.6,4.99,0.00,23.0,22.5,00.0,32.0,24.8,10.3,0000.0,0009.01,0003.87,0003.52
2022-01-15 20:14:00,,0829.6,5.01,0.00,23.0,22.5,00.0,32.0,24.8,10.2,0000.0,0009.11,0003.92,0003.55
2022-01-15 20:15:00,,0829.6,5.00,0.00,23.0,22.5,00.0,32.0,24.8,10.2,0000.0,0009.38,0003.98,0003.58
2022-01-15 20:16:00,,0829.5,5.01,0.00,23.0,22.4,00.0,32.0,24.8,10.3,0000.0,0009.71,0004.05,0003.60
2022-01-15 20:17:00,,0829.5,4.99,0.00,23.0,22.4,00.0,32.0,24.8,10.3,0000.0,0009.62,0004.08,0003.63
2022-01-15 20:18:00,,0829.5,4.99,0.00,23.0,22.4,00.0,32.0,24.8,10.4,0000.0,0009.78,0004.13,0003.65
2022-01-15 20:19:00,,0829.5,5.01,0.00,23.0,22.4,00.0,32.0,24.8,10.4,0000.0,0009.72,0004.13,0003.67
2022-01-15 20:20:00,,0829.5,4.99,0.00,23.0,22.4,00.0,32.0,24.8,10.5,0000.0,0009.49,0004.16,0003.69
2022-01-15 20:21:00,,0829.5,5.01,0.00,23.0,22.4,00.0,32.0,24.8,10.4,0000.0,0009.27,0004.17,0003.70
2022-01-15 20:22:00,,0829.5,5.00,0.00,23.0,22.4,00.0,32.0,24.8,10.4,0000.0,0009.13,0004.16,0003.70
2022-01-15 20:23:00,,0829.5,4.99,0.00,23.0,22.4,00.0,32.0,24.7,10.5,0000.0,0009.13,0004.17,0003.71
2022-01-15 20:24:00,,0829.5,5.02,0.00,23.0,22.4,00.0,32.0,24.7,10.6,0000.0,0008.98,0004.15,0003.72
2022-01-15 20:25:00,,0829.5,4.99,0.00,23.0,22.4,00.0,32.0,24.7,10.6,0000.0,0009.70,0004.11,0003.71
2022-01-15 20:26:00,,0829.4,5.02,0.00,23.0,22.3,00.0,32.0,24.7,10.5,0000.0,0009.54,0004.09,0003.70
2022-01-15 20:27:00,,0829.4,4.99,0.00,23.0,22.4,00.0,32.0,24.7,10.6,0000.0,0009.15,0004.07,0003.72
2022-01-15 20:28:00,,0829.3,5.01,0.00,23.0,22.4,00.0,32.0,24.7,10.7,0000.0,0009.32,0004.06,0003.72
2022-01-15 20:29:00,,0829.3,4.99,0.00,23.0,22.4,00.0,32.0,24.7,10.6,0000.0,0009.34,0004.06,0003.73
2022-01-15 20:30:00,,0829.3,5.01,0.00,23.0,22.4,00.0,32.0,24.7,10.6,0000.0,0009.44,0004.08,0003.75
2022-01-15 20:31:00,,0829.2,4.99,0.00,22.9,22.4,00.0,32.0,24.7,10.6,0000.0,0010.50,0004.11,0003.76
2022-01-15 20:32:00,,0829.2,5.01,0.00,22.9,22.3,00.0,32.0,24.7,10.6,0000.0,0010.72,0004.14,0003.79
2022-01-15 20:33:00,,0829.2,4.98,0.00,22.9,22.3,00.0,32.0,24.7,10.7,0000.0,0010.81,0004.19,0003.81
2022-01-15 20:34:00,,0829.2,5.01,0.00,22.9,22.3,00.0,32.0,24.7,10.7,0000.0,0011.22,0004.23,0003.83
2022-01-15 20:35:00,,0829.2,4.99,0.00,22.9,22.3,00.0,32.0,24.6,10.6,0000.0,0010.49,0004.26,0003.87
2022-01-15 20:36:00,,0829.2,5.02,0.00,22.9,22.3,00.0,31.9,24.6,10.7,0000.0,0009.72,0004.34,0003.90
2022-01-15 20:37:00,,0829.1,4.99,0.00,22.9,22.3,00.0,31.9,24.6,10.6,0000.0,0009.96,0004.36,0003.92
2022-01-15 20:38:00,,0829.1,4.99,0.00,22.9,22.3,00.0,31.9,24.6,10.7,0000.0,0009.79,0004.36,0003.93
2022-01-15 20:39:00,,0829.1,5.01,0.00,22.9,22.3,00.0,31.9,24.6,10.9,0000.0,0009.70,0004.40,0003.95
2022-01-15 20:40:00,,0829.1,4.99,0.00,22.9,22.3,00.0,31.9,24.6,10.9,0000.0,0009.62,0004.42,0003.97
2022-01-15 20:41:00,,0829.1,5.00,0.00,22.9,22.3,00.0,31.9,24.7,10.6,0000.0,0009.52,0004.45,0003.99
2022-01-15 20:42:00,,0829.1,4.99,0.00,22.9,22.3,00.0,31.9,24.6,10.5,0000.0,0008.70,0004.52,0004.03
2022-01-15 20:43:00,,0829.0,5.01,0.00,22.9,22.3,00.0,31.9,24.6,10.7,0000.0,0008.70,0004.56,0004.05
2022-01-15 20:44:00,,0829.0,5.01,0.00,22.9,22.3,00.0,31.9,24.6,10.6,0000.0,0008.83,0004.61,0004.08
2022-01-15 20:45:00,,0829.0,4.99,0.00,22.9,22.3,00.0,31.9,24.6,10.6,0000.0,0008.67,0004.62,0004.09
2022-01-15 20:46:00,,0829.0,5.00,0.00,22.9,22.3,00.0,31.9,24.6,10.6,0000.0,0008.51,0004.63,0004.10
2022-01-15 20:47:00,,0829.0,5.00,0.00,22.9,22.3,00.0,31.9,24.6,10.5,0000.0,0008.41,0004.62,0004.11
2022-01-15 20:48:00,,0828.9,5.01,0.00,22.9,22.3,00.0,31.9,24.6,10.6,0000.0,0008.51,0004.64,0004.12
2022-01-15 20:49:00,,0828.9,4.99,0.00,22.9,22.3,00.0,31.9,24.6,10.7,0000.0,0008.54,0004.65,0004.13
2022-01-15 20:50:00,,0828.9,5.00,0.00,22.9,22.3,00.0,31.9,24.6,10.5,0000.0,0008.46,0004.62,0004.12
2022-01-15 20:51:00,,0829.2,4.99,0.00,22.8,22.2,00.0,31.9,24.6,10.6,0000.0,0008.88,0004.60,0004.11
2022-01-15 20:52:00,,0828.8,5.00,0.00,22.8,22.2,00.0,31.9,24.6,10.7,0000.0,0009.11,0004.61,0004.10
2022-01-15 20:53:00,,0828.7,5.02,0.00,22.8,22.3,00.0,31.9,24.5,10.6,0000.0,0009.49,0004.58,0004.07
2022-01-15 20:54:00,,0828.7,4.99,0.00,22.8,22.2,00.0,31.9,24.5,10.6,0000.0,0009.43,0004.58,0004.05
2022-01-15 20:55:00,,0828.7,5.00,0.00,22.8,22.2,00.0,31.9,24.6,10.7,0000.0,0009.35,0004.54,0004.03
2022-01-15 20:56:00,,0828.7,5.00,0.00,22.8,22.3,00.0,31.9,24.6,10.6,0000.0,0009.19,0004.50,0004.00
2022-01-15 20:57:00,,0828.7,5.00,0.00,22.8,22.3,00.0,31.9,24.6,10.6,0000.0,0009.30,0004.49,0003.97
2022-01-15 20:58:00,,0828.6,5.01,0.00,22.8,22.3,00.0,31.9,24.6,10.8,0000.0,0009.57,0004.49,0003.96
2022-01-15 20:59:00,,0828.7,4.99,0.00,22.8,22.3,00.0,31.9,24.6,10.6,0000.0,0009.42,0004.50,0003.94
